| time (UTC) | temp F | wind direction | speed knots | gust knots | rain 1hr in | rain 24hr in | rain mn in | humidity % | barometer mb |
| 20260906090048 | 48 | 360 | 0.0 | 0.0 | 0.00 | 0.00 | 0.00 | 84 | 1012.7 |
| 20260906084547 | 48 | 360 | 0.0 | 0.0 | 0.00 | 0.00 | 0.00 | 84 | 1012.7 |
| 20260906083049 | 48 | 277 | 0.0 | 0.0 | 0.00 | 0.00 | 0.00 | 84 | 1012.7 |
| 20260906081546 | 48 | 279 | 0.0 | 0.0 | 0.00 | 0.00 | 0.00 | 84 | 1012.8 |
| 20260906080045 | 48 | 279 | 0.0 | 0.0 | 0.00 | 0.00 | 0.00 | 84 | 1012.8 |
| 20260906074543 | 48 | 279 | 0.0 | 0.0 | 0.00 | 0.00 | 0.00 | 84 | 1012.9 |
| 20260906073042 | 49 | 279 | 0.0 | 0.0 | 0.00 | 0.00 | 0.00 | 83 | 1012.9 |
| 20260906071540 | 49 | 279 | 0.0 | 0.0 | 0.00 | 0.00 | 0.00 | 83 | 1012.9 |
| 20260906070039 | 49 | 279 | 0.0 | 0.0 | 0.00 | 0.00 | 0.00 | 83 | 1012.8 |
| 20260906064538 | 49 | 276 | 0.0 | 0.0 | 0.00 | 0.00 | 0.00 | 83 | 1012.7 |
| 20260906063039 | 50 | 278 | 0.0 | 0.0 | 0.00 | 0.00 | 0.00 | 83 | 1012.7 |
| 20260906061538 | 50 | 278 | 0.0 | 0.0 | 0.00 | 0.00 | 0.00 | 84 | 1012.7 |
| 20260906060035 | 50 | 277 | 0.0 | 0.0 | 0.00 | 0.02 | 0.00 | 84 | 1012.8 |
| 20260906054539 | 50 | 248 | 0.0 | 0.0 | 0.00 | 0.02 | 0.00 | 84 | 1012.8 |
| 20260906053035 | 50 | 325 | 0.0 | 0.0 | 0.00 | 0.02 | 0.00 | 84 | 1012.8 |
| 20260906051546 | 50 | 296 | 0.0 | 0.0 | 0.00 | 0.02 | 0.00 | 84 | 1012.6 |
| 20260906050031 | 50 | 301 | 0.0 | 0.0 | 0.00 | 0.07 | 0.00 | 83 | 1012.6 |
| 20260906044529 | 50 | 290 | 0.0 | 0.0 | 0.00 | 0.07 | 0.00 | 83 | 1012.7 |
| 20260906043028 | 50 | 309 | 0.0 | 0.0 | 0.00 | 0.07 | 0.00 | 83 | 1012.7 |
| 20260906041527 | 50 | 321 | 0.0 | 0.0 | 0.00 | 0.07 | 0.00 | 83 | 1012.8 |
| 20260906040030 | 51 | 254 | 0.0 | 0.0 | 0.00 | 0.20 | 0.07 | 83 | 1012.7 |
| 20260906034523 | 51 | 343 | 0.0 | 0.0 | 0.00 | 0.20 | 0.07 | 82 | 1012.7 |
| 20260906033035 | 51 | 325 | 0.0 | 0.0 | 0.00 | 0.20 | 0.07 | 82 | 1012.8 |
| 20260906031520 | 52 | 323 | 0.0 | 0.0 | 0.00 | 0.20 | 0.07 | 82 | 1012.8 |
| 20260906030019 | 52 | 325 | 0.0 | 0.0 | 0.00 | 0.20 | 0.07 | 82 | 1013.0 |
| 20260906024533 | 52 | 5 | 0.0 | 0.0 | 0.00 | 0.20 | 0.07 | 81 | 1012.9 |
| 20260906023019 | 53 | 311 | 0.0 | 0.0 | 0.00 | 0.20 | 0.07 | 81 | 1013.0 |
| 20260906021514 | 53 | 303 | 0.0 | 0.0 | 0.00 | 0.20 | 0.07 | 80 | 1013.1 |
| 20260906020012 | 54 | 334 | 0.0 | 0.0 | 0.00 | 0.20 | 0.07 | 79 | 1013.2 |
| 20260906014515 | 54 | 340 | 0.0 | 0.0 | 0.00 | 0.20 | 0.07 | 79 | 1013.2 |
| 20260906013029 | 55 | 319 | 0.0 | 0.0 | 0.00 | 0.20 | 0.07 | 78 | 1013.2 |
| 20260906011507 | 55 | 40 | 0.0 | 0.0 | 0.00 | 0.20 | 0.07 | 78 | 1013.2 |
| 20260906010007 | 56 | 344 | 0.0 | 5.2 | 0.00 | 0.20 | 0.07 | 77 | 1013.2 |
| 20260906004506 | 56 | 23 | 0.0 | 0.0 | 0.00 | 0.20 | 0.07 | 77 | 1013.1 |
| 20260906003004 | 56 | 36 | 0.0 | 4.3 | 0.00 | 0.20 | 0.07 | 77 | 1012.9 |
| 20260906001503 | 56 | 50 | 0.0 | 2.6 | 0.00 | 0.20 | 0.07 | 77 | 1013.0 |
| 20260906000002 | 57 | 5 | 0.0 | 0.9 | 0.00 | 0.20 | 0.07 | 76 | 1012.9 |
| 20260905234503 | 57 | 20 | 0.0 | 0.0 | 0.00 | 0.20 | 0.07 | 75 | 1012.8 |
| 20260905233102 | 58 | 321 | 0.0 | 2.6 | 0.00 | 0.20 | 0.07 | 74 | 1012.8 |
| 20260905231559 | 59 | 57 | 0.0 | 0.0 | 0.00 | 0.20 | 0.07 | 73 | 1012.7 |
| 20260905230057 | 60 | 44 | 0.0 | 0.0 | 0.00 | 0.20 | 0.07 | 71 | 1012.5 |
| 20260905224609 | 61 | 97 | 0.9 | 4.3 | 0.00 | 0.20 | 0.07 | 69 | 1012.3 |
| 20260905223054 | 62 | 74 | 0.0 | 3.5 | 0.00 | 0.20 | 0.07 | 68 | 1012.2 |
| 20260905221609 | 62 | 17 | 0.9 | 3.5 | 0.00 | 0.20 | 0.07 | 67 | 1012.0 |
| 20260905220049 | 63 | 49 | 1.7 | 7.8 | 0.00 | 0.20 | 0.07 | 65 | 1011.7 |
| 20260905214548 | 63 | 42 | 0.0 | 8.7 | 0.00 | 0.20 | 0.07 | 64 | 1011.6 |
| 20260905213059 | 63 | 344 | 1.7 | 5.2 | 0.00 | 0.20 | 0.07 | 65 | 1011.6 |
| 20260905211547 | 64 | 26 | 0.9 | 7.8 | 0.00 | 0.20 | 0.07 | 64 | 1011.4 |
| 20260905210051 | 65 | 97 | 0.9 | 6.1 | 0.00 | 0.20 | 0.07 | 64 | 1011.3 |
| 20260905204546 | 66 | 49 | 0.0 | 3.5 | 0.00 | 0.23 | 0.07 | 62 | 1011.0 |
| 20260905203045 | 66 | 71 | 0.0 | 7.8 | 0.00 | 0.23 | 0.07 | 61 | 1011.0 |
| 20260905201556 | 66 | 316 | 2.6 | 7.8 | 0.00 | 0.23 | 0.07 | 60 | 1010.9 |
| 20260905200046 | 66 | 338 | 0.0 | 5.2 | 0.00 | 0.23 | 0.07 | 63 | 1011.0 |
| 20260905194542 | 64 | 19 | 0.0 | 6.1 | 0.00 | 0.24 | 0.07 | 66 | 1011.1 |
| 20260905193042 | 64 | 277 | 1.7 | 7.0 | 0.00 | 0.24 | 0.07 | 63 | 1011.0 |
| 20260905191540 | 64 | 313 | 0.9 | 5.2 | 0.00 | 0.24 | 0.07 | 66 | 1011.1 |
| 20260905190039 | 64 | 62 | 0.0 | 8.7 | 0.00 | 0.24 | 0.07 | 64 | 1011.1 |
| 20260905184543 | 65 | 90 | 0.0 | 5.2 | 0.00 | 0.24 | 0.07 | 64 | 1011.0 |
| 20260905183038 | 66 | 276 | 0.0 | 8.7 | 0.00 | 0.24 | 0.07 | 61 | 1010.9 |
| 20260905181542 | 68 | 321 | 0.0 | 5.2 | 0.00 | 0.24 | 0.07 | 61 | 1010.8 |
| 20260905180040 | 67 | 96 | 0.0 | 7.0 | 0.00 | 0.24 | 0.07 | 58 | 1010.9 |
| 20260905174534 | 68 | 103 | 0.9 | 8.7 | 0.00 | 0.24 | 0.07 | 61 | 1010.9 |
| 20260905173032 | 65 | 350 | 0.0 | 9.6 | 0.00 | 0.24 | 0.07 | 63 | 1010.9 |
| 20260905171534 | 65 | 314 | 0.0 | 7.8 | 0.00 | 0.24 | 0.07 | 63 | 1010.9 |
| 20260905170030 | 66 | 332 | 3.5 | 8.7 | 0.00 | 0.24 | 0.07 | 64 | 1010.9 |
| 20260905164529 | 64 | 38 | 0.0 | 6.1 | 0.00 | 0.24 | 0.07 | 66 | 1010.8 |
| 20260905163033 | 66 | 309 | 0.9 | 10.4 | 0.00 | 0.24 | 0.07 | 67 | 1010.9 |
| 20260905161528 | 66 | 18 | 1.7 | 7.8 | 0.00 | 0.24 | 0.07 | 67 | 1011.0 |
| 20260905160025 | 65 | 5 | 0.0 | 7.0 | 0.00 | 0.24 | 0.07 | 69 | 1010.9 |
| 20260905154524 | 64 | 349 | 0.9 | 8.7 | 0.00 | 0.24 | 0.07 | 71 | 1011.0 |
| 20260905153025 | 64 | 348 | 0.0 | 6.1 | 0.00 | 0.24 | 0.07 | 72 | 1011.0 |
| 20260905151526 | 63 | 35 | 0.0 | 5.2 | 0.00 | 0.24 | 0.07 | 72 | 1010.9 |
| 20260905150019 | 63 | 281 | 0.0 | 9.6 | 0.00 | 0.24 | 0.07 | 71 | 1010.9 |
| 20260905144518 | 62 | 355 | 1.7 | 11.3 | 0.00 | 0.24 | 0.07 | 71 | 1011.1 |
| 20260905143022 | 61 | 26 | 0.9 | 7.8 | 0.00 | 0.24 | 0.07 | 75 | 1011.0 |
| 20260905141512 | 61 | 84 | 0.0 | 5.2 | 0.00 | 0.24 | 0.07 | 76 | 1010.9 |
| 20260905140011 | 60 | 122 | 2.6 | 8.7 | 0.00 | 0.24 | 0.07 | 76 | 1011.0 |
| 20260905134512 | 60 | 317 | 0.0 | 7.8 | 0.00 | 0.24 | 0.07 | 78 | 1010.8 |
| 20260905133007 | 59 | 88 | 0.9 | 8.7 | 0.00 | 0.24 | 0.07 | 79 | 1010.7 |
| 20260905131507 | 58 | 350 | 2.6 | 7.8 | 0.00 | 0.24 | 0.07 | 80 | 1010.7 |
| 20260905130005 | 58 | 306 | 2.6 | 7.8 | 0.00 | 0.24 | 0.07 | 80 | 1010.8 |
| 20260905124507 | 58 | 309 | 1.7 | 5.2 | 0.00 | 0.24 | 0.07 | 81 | 1010.7 |
| 20260905123009 | 57 | 278 | 0.0 | 6.1 | 0.00 | 0.24 | 0.07 | 82 | 1010.7 |
| 20260905121502 | 57 | 316 | 0.9 | 9.6 | 0.00 | 0.24 | 0.07 | 82 | 1010.6 |
| 20260905120000 | 56 | 285 | 0.0 | 7.0 | 0.00 | 0.25 | 0.07 | 83 | 1010.5 |
| 20260905114600 | 56 | 360 | 0.0 | 5.2 | 0.00 | 0.25 | 0.07 | 83 | 1010.5 |
| 20260905113057 | 56 | 20 | 0.0 | 5.2 | 0.00 | 0.25 | 0.07 | 83 | 1010.3 |
| 20260905111606 | 56 | 16 | 0.0 | 4.3 | 0.00 | 0.25 | 0.07 | 83 | 1010.3 |
| 20260905110059 | 55 | 27 | 0.0 | 7.8 | 0.00 | 0.25 | 0.07 | 84 | 1010.1 |
| 20260905104611 | 55 | 312 | 0.9 | 5.2 | 0.00 | 0.25 | 0.07 | 84 | 1009.8 |
| 20260905103051 | 55 | 299 | 0.0 | 5.2 | 0.00 | 0.25 | 0.07 | 84 | 1009.7 |
| 20260905101551 | 56 | 314 | 0.0 | 5.2 | 0.00 | 0.25 | 0.07 | 84 | 1009.6 |
| 20260905100047 | 56 | 345 | 0.9 | 4.3 | 0.00 | 0.25 | 0.07 | 84 | 1009.4 |
| 20260905094544 | 56 | 311 | 0.0 | 2.6 | 0.00 | 0.25 | 0.07 | 84 | 1009.1 |
| 20260905093042 | 57 | 236 | 0.0 | 4.3 | 0.00 | 0.25 | 0.07 | 85 | 1008.9 |
| 20260905091556 | 57 | 261 | 0.0 | 4.3 | 0.00 | 0.25 | 0.07 | 85 | 1008.8 |